TimeCDT,TemperatureF,Dew PointF,Humidity,Sea Level PressureIn,VisibilityMPH,Wind Direction,Wind SpeedMPH,Gust SpeedMPH,PrecipitationIn,Events,Conditions,WindDirDegrees,DateUTC
12:56 AM,66.9,64.0,90,30.16,10.0,East,4.6,-,N/A,,Clear,80,2013-10-26 05:56:00
1:56 AM,66.0,64.0,93,30.15,10.0,NNE,4.6,-,N/A,,Clear,30,2013-10-26 06:56:00
2:56 AM,66.0,64.0,93,30.14,10.0,ENE,4.6,-,N/A,,Clear,60,2013-10-26 07:56:00
3:56 AM,66.0,64.0,93,30.13,10.0,NE,3.5,-,N/A,,Clear,50,2013-10-26 08:56:00
4:56 AM,64.9,64.0,97,30.12,10.0,East,4.6,-,N/A,,Clear,80,2013-10-26 09:56:00
5:56 AM,64.0,63.0,96,30.12,10.0,East,4.6,-,N/A,,Clear,90,2013-10-26 10:56:00
6:56 AM,64.0,64.0,100,30.12,10.0,East,5.8,-,N/A,,Clear,100,2013-10-26 11:56:00
7:56 AM,64.9,64.0,97,30.13,10.0,East,4.6,-,N/A,,Clear,90,2013-10-26 12:56:00
8:56 AM,70.0,69.1,97,30.14,10.0,East,5.8,-,N/A,,Overcast,100,2013-10-26 13:56:00
9:56 AM,73.9,71.1,91,30.17,10.0,ESE,5.8,-,N/A,,Overcast,120,2013-10-26 14:56:00
10:56 AM,80.1,68.0,67,30.17,10.0,SE,16.1,23.0,N/A,,Mostly Cloudy,140,2013-10-26 15:56:00
11:56 AM,82.0,68.0,62,30.16,10.0,SE,13.8,-,N/A,,Mostly Cloudy,130,2013-10-26 16:56:00
12:56 PM,84.0,66.9,56,30.14,10.0,ESE,17.3,23.0,N/A,,Overcast,120,2013-10-26 17:56:00
1:56 PM,86.0,66.9,53,30.11,10.0,SE,17.3,24.2,N/A,,Overcast,130,2013-10-26 18:56:00
2:56 PM,86.0,68.0,55,30.08,10.0,ESE,18.4,24.2,0.00,Rain,Light Rain,120,2013-10-26 19:56:00
3:56 PM,82.9,66.9,58,30.07,10.0,SE,16.1,24.2,0.00,Rain,Light Rain,140,2013-10-26 20:56:00
4:56 PM,82.0,68.0,62,30.07,10.0,ESE,16.1,-,0.00,Rain,Light Rain,120,2013-10-26 21:56:00
5:56 PM,80.1,68.0,67,30.07,10.0,SE,12.7,-,0.00,Rain,Light Rain,130,2013-10-26 22:56:00
6:56 PM,78.1,68.0,71,30.07,10.0,ESE,9.2,-,0.00,Rain,Light Rain,120,2013-10-26 23:56:00
7:56 PM,75.0,68.0,79,30.06,10.0,SE,8.1,-,0.00,,Mostly Cloudy,130,2013-10-27 00:56:00
8:56 PM,73.0,69.1,87,30.07,10.0,SE,5.8,-,N/A,,Clear,130,2013-10-27 01:56:00
9:56 PM,72.0,69.1,91,30.08,10.0,SE,8.1,-,N/A,,Clear,140,2013-10-27 02:56:00
10:56 PM,72.0,70.0,93,30.06,10.0,SSE,6.9,-,N/A,,Clear,160,2013-10-27 03:56:00
11:56 PM,70.0,69.1,97,30.06,10.0,SE,4.6,-,N/A,,Clear,140,2013-10-27 04:56:00